Terminal Aerodrome Forecast
Issued by NWS

Home | Current Version | Previous Version | Text Only | Print | Product List | Glossary On
Versions: 1 2 3 4 5 6 7 8 9 10 11 12 13 14 15 16 17 18 19 20 21 22 23 24
000
FTUS44 KOUN 050522
TAFPNC
TAF
KPNC 050522Z 0506/0606 14007KT P6SM SCT030 SCT150
     FM051400 18009KT P6SM SCT050 SCT150=

USA.gov is the U.S. government's official web portal to all federal, state and local government web resources and services.